Time,TemperatureF,DewpointF,PressureIn,WindDirection,WindDirectionDegrees,WindSpeedMPH,WindSpeedGustMPH,Humidity,HourlyPrecipIn,Conditions,Clouds,dailyrainin,SoftwareType,DateUTC
2013-03-15 00:00:00,34.4,11.3,29.91,NNW,338,3.4,4.0,38,0.00,,,0.00,WUHU216HW,2013-03-15 04:00:00,
2013-03-15 00:05:00,34.2,10.4,29.91,North,0,4.0,5.8,37,0.00,,,0.00,WUHU216HW,2013-03-15 04:05:00,
2013-03-15 00:10:00,34.2,11.2,29.91,NW,315,2.2,5.8,38,0.00,,,0.00,WUHU216HW,2013-03-15 04:10:00,
2013-03-15 00:15:00,34.2,11.2,29.91,North,0,1.1,6.3,38,0.00,,,0.00,WUHU216HW,2013-03-15 04:15:00,
2013-03-15 00:20:00,34.2,11.2,29.91,WSW,248,2.7,6.3,38,0.00,,,0.00,WUHU216HW,2013-03-15 04:20:00,
2013-03-15 00:25:00,34.0,11.6,29.91,West,270,2.7,4.7,39,0.00,,,0.00,WUHU216HW,2013-03-15 04:25:00,
2013-03-15 00:30:00,34.0,11.6,29.91,SSW,203,0.4,8.3,39,0.00,,,0.00,WUHU216HW,2013-03-15 04:30:00,
2013-03-15 00:35:00,34.0,11.6,29.91,North,0,1.8,8.3,39,0.00,,,0.00,WUHU216HW,2013-03-15 04:35:00,
2013-03-15 00:40:00,33.8,11.4,29.91,North,0,0.4,4.5,39,0.00,,,0.00,WUHU216HW,2013-03-15 04:40:00,
2013-03-15 00:45:00,33.8,11.4,29.91,NNW,338,4.5,4.5,39,0.00,,,0.00,WUHU216HW,2013-03-15 04:45:00,
2013-03-15 00:50:00,33.7,11.9,29.91,North,0,1.3,4.9,40,0.00,,,0.00,WUHU216HW,2013-03-15 04:50:00,
2013-03-15 00:55:00,33.5,11.7,29.91,NNW,338,3.1,4.9,40,0.00,,,0.00,WUHU216HW,2013-03-15 04:55:00,
2013-03-15 01:00:00,33.5,11.7,29.91,NNW,338,4.9,5.1,40,0.00,,,0.00,WUHU216HW,2013-03-15 05:00:00,
2013-03-15 01:05:00,33.7,12.4,29.91,SSW,203,4.0,5.1,41,0.00,,,0.00,WUHU216HW,2013-03-15 05:05:00,
2013-03-15 01:10:00,33.5,11.7,29.91,West,270,1.8,8.5,40,0.00,,,0.00,WUHU216HW,2013-03-15 05:10:00,
2013-03-15 01:15:00,33.5,12.2,29.91,NNW,338,2.5,8.5,41,0.00,,,0.00,WUHU216HW,2013-03-15 05:15:00,
2013-03-15 01:20:00,33.5,12.2,29.91,NNE,23,2.7,7.2,41,0.00,,,0.00,WUHU216HW,2013-03-15 05:20:00,
2013-03-15 01:25:00,33.5,12.2,29.91,North,0,1.1,7.4,41,0.00,,,0.00,WUHU216HW,2013-03-15 05:25:00,
2013-03-15 01:30:00,33.5,12.2,29.92,West,270,1.1,7.4,41,0.00,,,0.00,WUHU216HW,2013-03-15 05:30:00,
2013-03-15 01:35:00,33.5,12.8,29.92,NW,315,4.0,5.4,42,0.00,,,0.00,WUHU216HW,2013-03-15 05:35:00,
2013-03-15 01:40:00,33.3,12.6,29.92,NW,315,4.0,5.4,42,0.00,,,0.00,WUHU216HW,2013-03-15 05:40:00,
2013-03-15 01:45:00,33.3,12.6,29.93,NW,315,1.3,5.4,42,0.00,,,0.00,WUHU216HW,2013-03-15 05:45:00,
2013-03-15 01:50:00,33.1,11.9,29.93,North,0,0.9,4.5,41,0.00,,,0.00,WUHU216HW,2013-03-15 05:50:00,
2013-03-15 01:55:00,33.1,11.9,29.93,NNW,338,2.0,6.7,41,0.00,,,0.00,WUHU216HW,2013-03-15 05:55:00,
2013-03-15 02:00:00,33.1,12.4,29.93,WSW,248,1.1,6.7,42,0.00,,,0.00,WUHU216HW,2013-03-15 06:00:00,
2013-03-15 02:05:00,32.9,12.2,29.93,SE,135,1.8,4.3,42,0.00,,,0.00,WUHU216HW,2013-03-15 06:05:00,
2013-03-15 02:10:00,32.9,12.2,29.93,WNW,293,1.6,6.3,42,0.00,,,0.00,WUHU216HW,2013-03-15 06:10:00,
2013-03-15 02:15:00,32.9,12.2,29.93,NW,315,2.5,6.3,42,0.00,,,0.00,WUHU216HW,2013-03-15 06:15:00,
2013-03-15 02:20:00,32.8,12.1,29.93,NNW,338,3.1,4.5,42,0.00,,,0.00,WUHU216HW,2013-03-15 06:20:00,
2013-03-15 02:25:00,32.8,12.6,29.93,West,270,2.5,4.7,43,0.00,,,0.00,WUHU216HW,2013-03-15 06:25:00,
2013-03-15 02:30:00,32.8,12.1,29.92,NNW,338,3.6,5.4,42,0.00,,,0.00,WUHU216HW,2013-03-15 06:30:00,
2013-03-15 02:35:00,32.8,12.6,29.92,North,0,4.0,7.2,43,0.00,,,0.00,WUHU216HW,2013-03-15 06:35:00,
2013-03-15 02:40:00,32.6,12.4,29.92,North,0,5.8,7.2,43,0.00,,,0.00,WUHU216HW,2013-03-15 06:40:00,
2013-03-15 02:45:00,32.6,12.4,29.92,West,270,1.1,5.8,43,0.00,,,0.00,WUHU216HW,2013-03-15 06:45:00,
2013-03-15 02:50:00,32.6,13.0,29.92,NW,315,1.8,5.8,44,0.00,,,0.00,WUHU216HW,2013-03-15 06:50:00,
2013-03-15 02:55:00,32.4,12.8,29.92,NW,315,1.8,6.3,44,0.00,,,0.00,WUHU216HW,2013-03-15 06:55:00,
2013-03-15 03:00:00,32.4,12.8,29.91,North,0,3.4,6.3,44,0.00,,,0.00,WUHU216HW,2013-03-15 07:00:00,
2013-03-15 03:05:00,32.4,12.8,29.92,NW,315,2.9,4.0,44,0.00,,,0.00,WUHU216HW,2013-03-15 07:05:00,
2013-03-15 03:10:00,32.2,13.2,29.92,NW,315,3.4,4.5,45,0.00,,,0.00,WUHU216HW,2013-03-15 07:10:00,
2013-03-15 03:15:00,32.2,13.2,29.91,NNW,338,2.0,4.7,45,0.00,,,0.00,WUHU216HW,2013-03-15 07:15:00,
2013-03-15 03:20:00,32.2,13.2,29.91,NNW,338,2.5,4.7,45,0.00,,,0.00,WUHU216HW,2013-03-15 07:20:00,
2013-03-15 03:25:00,32.2,13.2,29.91,NNW,338,1.8,4.7,45,0.00,,,0.00,WUHU216HW,2013-03-15 07:25:00,
2013-03-15 03:30:00,32.0,13.0,29.91,WSW,248,4.5,5.1,45,0.00,,,0.00,WUHU216HW,2013-03-15 07:30:00,
2013-03-15 03:35:00,32.0,13.0,29.91,NW,315,2.2,5.1,45,0.00,,,0.00,WUHU216HW,2013-03-15 07:35:00,
2013-03-15 03:40:00,32.0,13.0,29.91,NW,315,2.0,5.8,45,0.00,,,0.00,WUHU216HW,2013-03-15 07:40:00,
2013-03-15 03:45:00,32.0,13.0,29.91,NNW,338,1.3,5.8,45,0.00,,,0.00,WUHU216HW,2013-03-15 07:45:00,
2013-03-15 03:50:00,32.0,13.5,29.92,SW,225,4.0,4.0,46,0.00,,,0.00,WUHU216HW,2013-03-15 07:50:00,
2013-03-15 03:55:00,32.0,13.5,29.91,North,0,2.5,5.6,46,0.00,,,0.00,WUHU216HW,2013-03-15 07:55:00,
2013-03-15 04:00:00,32.0,13.5,29.91,NW,315,1.8,5.6,46,0.00,,,0.00,WUHU216HW,2013-03-15 08:00:00,
2013-03-15 04:05:00,31.9,13.3,29.91,WNW,293,3.4,3.8,46,0.00,,,0.00,WUHU216HW,2013-03-15 08:05:00,
2013-03-15 04:10:00,31.9,13.3,29.91,West,270,2.5,5.1,46,0.00,,,0.00,WUHU216HW,2013-03-15 08:10:00,
2013-03-15 04:15:00,31.9,13.8,29.91,WNW,293,4.7,5.1,47,0.00,,,0.00,WUHU216HW,2013-03-15 08:15:00,
2013-03-15 04:20:00,31.9,13.8,29.91,North,0,2.2,5.6,47,0.00,,,0.00,WUHU216HW,2013-03-15 08:20:00,
2013-03-15 04:25:00,31.7,13.7,29.91,WNW,293,1.8,5.6,47,0.00,,,0.00,WUHU216HW,2013-03-15 08:25:00,
2013-03-15 04:30:00,31.7,13.7,29.91,NW,315,3.4,4.3,47,0.00,,,0.00,WUHU216HW,2013-03-15 08:30:00,
2013-03-15 04:35:00,31.7,13.7,29.91,NNW,338,0.2,3.4,47,0.00,,,0.00,WUHU216HW,2013-03-15 08:35:00,
2013-03-15 04:40:00,31.7,13.7,29.91,West,270,3.1,5.4,47,0.00,,,0.00,WUHU216HW,2013-03-15 08:40:00,
2013-03-15 04:45:00,31.7,14.1,29.91,NE,45,4.0,5.4,48,0.00,,,0.00,WUHU216HW,2013-03-15 08:45:00,
2013-03-15 04:50:00,31.7,14.1,29.91,WSW,248,5.8,5.8,48,0.00,,,0.00,WUHU216HW,2013-03-15 08:50:00,
2013-03-15 04:55:00,31.7,14.1,29.91,NW,315,3.4,5.8,48,0.00,,,0.00,WUHU216HW,2013-03-15 08:55:00,
2013-03-15 05:00:00,31.7,14.1,29.91,North,0,2.5,5.8,48,0.00,,,0.00,WUHU216HW,2013-03-15 09:00:00,
2013-03-15 05:05:00,31.5,14.0,29.91,NE,45,2.2,4.9,48,0.00,,,0.00,WUHU216HW,2013-03-15 09:05:00,
2013-03-15 05:10:00,31.5,14.0,29.91,NNW,338,1.3,4.9,48,0.00,,,0.00,WUHU216HW,2013-03-15 09:10:00,
2013-03-15 05:15:00,31.5,14.0,29.92,North,0,1.1,5.4,48,0.00,,,0.00,WUHU216HW,2013-03-15 09:15:00,
2013-03-15 05:20:00,31.3,13.9,29.91,West,270,1.1,5.4,48,0.00,,,0.00,WUHU216HW,2013-03-15 09:20:00,
2013-03-15 05:25:00,31.3,13.9,29.91,NNW,338,0.9,4.0,48,0.00,,,0.00,WUHU216HW,2013-03-15 09:25:00,
2013-03-15 05:30:00,31.3,14.3,29.91,North,0,0.7,6.9,49,0.00,,,0.00,WUHU216HW,2013-03-15 09:30:00,
2013-03-15 05:35:00,31.3,14.3,29.92,WNW,293,1.1,6.9,49,0.00,,,0.00,WUHU216HW,2013-03-15 09:35:00,
2013-03-15 05:40:00,31.5,14.5,29.91,NW,315,4.3,4.3,49,0.00,,,0.00,WUHU216HW,2013-03-15 09:40:00,
2013-03-15 05:45:00,31.5,14.5,29.92,WSW,248,3.6,4.3,49,0.00,,,0.00,WUHU216HW,2013-03-15 09:45:00,
2013-03-15 05:50:00,31.5,14.5,29.92,NW,315,1.3,4.3,49,0.00,,,0.00,WUHU216HW,2013-03-15 09:50:00,
2013-03-15 05:55:00,31.5,14.5,29.91,North,0,4.0,8.3,49,0.00,,,0.00,WUHU216HW,2013-03-15 09:55:00,
2013-03-15 06:00:00,31.3,14.3,29.92,NNW,338,1.8,8.3,49,0.00,,,0.00,WUHU216HW,2013-03-15 10:00:00,
2013-03-15 06:05:00,31.3,14.3,29.92,NW,315,1.1,5.4,49,0.00,,,0.00,WUHU216HW,2013-03-15 10:05:00,
2013-03-15 06:10:00,31.3,14.3,29.93,NW,315,2.5,5.6,49,0.00,,,0.00,WUHU216HW,2013-03-15 10:10:00,
2013-03-15 06:15:00,31.3,14.3,29.92,NW,315,3.4,5.6,49,0.00,,,0.00,WUHU216HW,2013-03-15 10:15:00,
2013-03-15 06:20:00,31.3,14.9,29.92,NW,315,1.3,5.4,50,0.00,,,0.00,WUHU216HW,2013-03-15 10:20:00,
2013-03-15 06:25:00,31.3,14.9,29.92,SW,225,3.6,5.4,50,0.00,,,0.00,WUHU216HW,2013-03-15 10:25:00,
2013-03-15 06:30:00,31.3,14.9,29.93,WNW,293,4.0,5.4,50,0.00,,,0.00,WUHU216HW,2013-03-15 10:30:00,
2013-03-15 06:35:00,31.3,14.9,29.93,NW,315,2.5,5.4,50,0.00,,,0.00,WUHU216HW,2013-03-15 10:35:00,
2013-03-15 06:40:00,31.3,14.9,29.93,WNW,293,0.7,5.1,50,0.00,,,0.00,WUHU216HW,2013-03-15 10:40:00,
2013-03-15 06:45:00,31.3,14.9,29.93,West,270,1.3,5.1,50,0.00,,,0.00,WUHU216HW,2013-03-15 10:45:00,
2013-03-15 06:50:00,31.3,14.9,29.93,WNW,293,1.8,4.0,50,0.00,,,0.00,WUHU216HW,2013-03-15 10:50:00,
2013-03-15 06:55:00,31.3,14.9,29.93,NW,315,1.6,4.0,50,0.00,,,0.00,WUHU216HW,2013-03-15 10:55:00,
2013-03-15 07:00:00,31.1,14.7,29.93,West,270,1.6,3.4,50,0.00,,,0.00,WUHU216HW,2013-03-15 11:00:00,
2013-03-15 07:05:00,31.1,15.1,29.94,North,0,2.2,4.9,51,0.00,,,0.00,WUHU216HW,2013-03-15 11:05:00,
2013-03-15 07:10:00,31.1,15.1,29.93,SSW,203,2.7,5.4,51,0.00,,,0.00,WUHU216HW,2013-03-15 11:10:00,
2013-03-15 07:15:00,31.1,15.1,29.93,WSW,248,0.9,5.4,51,0.00,,,0.00,WUHU216HW,2013-03-15 11:15:00,
2013-03-15 07:20:00,31.0,15.0,29.93,WNW,293,0.7,4.5,51,0.00,,,0.00,WUHU216HW,2013-03-15 11:20:00,
2013-03-15 07:25:00,31.0,15.0,29.93,NNW,338,2.9,2.9,51,0.00,,,0.00,WUHU216HW,2013-03-15 11:25:00,
2013-03-15 07:29:00,31.0,15.0,29.93,West,270,1.1,1.8,51,0.00,,,0.00,WUHU216HW,2013-03-15 11:29:00,
2013-03-15 07:30:00,31.0,15.0,29.93,West,270,1.1,2.9,51,0.00,,,0.00,WUHU216HW,2013-03-15 11:30:00,
2013-03-15 07:35:00,31.0,15.0,29.93,West,270,1.1,2.2,51,0.00,,,0.00,WUHU216HW,2013-03-15 11:35:00,
2013-03-15 08:03:00,33.1,17.3,29.94,SW,225,0.4,0.4,52,0.00,,,0.00,WUHU216HW,2013-03-15 12:03:00,
2013-03-15 08:08:00,33.3,17.5,29.94,WSW,248,3.8,3.8,52,0.00,,,0.00,WUHU216HW,2013-03-15 12:08:00,
2013-03-15 08:13:00,33.3,17.5,29.94,WSW,248,3.8,3.8,52,0.00,,,0.00,WUHU216HW,2013-03-15 12:13:00,
2013-03-15 08:59:00,35.8,17.0,29.94,West,270,2.5,2.5,46,0.00,,,0.00,WUHU216HW,2013-03-15 12:59:00,
2013-03-15 09:04:00,36.0,16.1,29.94,NNW,338,1.1,5.1,44,0.00,,,0.00,WUHU216HW,2013-03-15 13:04:00,
2013-03-15 09:09:00,36.0,16.7,29.94,NW,315,2.5,5.1,45,0.00,,,0.00,WUHU216HW,2013-03-15 13:09:00,
2013-03-15 09:14:00,36.2,16.7,29.93,SW,225,2.5,5.8,45,0.00,,,0.00,WUHU216HW,2013-03-15 13:14:00,
2013-03-15 09:19:00,36.0,16.1,29.93,North,0,1.1,6.3,44,0.00,,,0.00,WUHU216HW,2013-03-15 13:19:00,
2013-03-15 09:24:00,36.0,16.1,29.93,WSW,248,1.1,6.3,44,0.00,,,0.00,WUHU216HW,2013-03-15 13:24:00,
2013-03-15 09:29:00,36.0,15.0,29.93,SW,225,5.8,6.3,42,0.00,,,0.00,WUHU216HW,2013-03-15 13:29:00,
2013-03-15 09:34:00,35.8,15.4,29.93,WSW,248,2.5,6.9,43,0.00,,,0.00,WUHU216HW,2013-03-15 13:34:00,
2013-03-15 09:39:00,36.2,15.2,29.93,NNW,338,3.4,8.1,42,0.00,,,0.00,WUHU216HW,2013-03-15 13:39:00,
2013-03-15 09:44:00,36.2,15.8,29.92,WSW,248,2.7,9.2,43,0.00,,,0.00,WUHU216HW,2013-03-15 13:44:00,
2013-03-15 09:49:00,36.2,15.8,29.92,North,0,0.4,9.2,43,0.00,,,0.00,WUHU216HW,2013-03-15 13:49:00,
2013-03-15 09:54:00,36.4,15.9,29.92,NNW,338,1.6,6.9,43,0.00,,,0.00,WUHU216HW,2013-03-15 13:54:00,
2013-03-15 09:59:00,36.4,16.4,29.92,West,270,5.4,7.4,44,0.00,,,0.00,WUHU216HW,2013-03-15 13:59:00,
2013-03-15 10:04:00,36.4,16.4,29.91,SW,225,1.8,7.4,44,0.00,,,0.00,WUHU216HW,2013-03-15 14:04:00,
2013-03-15 10:09:00,36.7,16.7,29.91,West,270,1.8,5.4,44,0.00,,,0.00,WUHU216HW,2013-03-15 14:09:00,
2013-03-15 10:14:00,36.7,15.7,29.91,WSW,248,4.0,6.3,42,0.00,,,0.00,WUHU216HW,2013-03-15 14:14:00,
2013-03-15 10:19:00,36.9,16.9,29.91,West,270,1.1,6.3,44,0.00,,,0.00,WUHU216HW,2013-03-15 14:19:00,
2013-03-15 10:24:00,36.9,16.4,29.91,SW,225,2.2,6.0,43,0.00,,,0.00,WUHU216HW,2013-03-15 14:24:00,
2013-03-15 10:29:00,37.3,17.2,29.90,SW,225,2.5,5.4,44,0.00,,,0.00,WUHU216HW,2013-03-15 14:29:00,
2013-03-15 10:34:00,37.6,17.6,29.90,West,270,2.2,6.9,44,0.00,,,0.00,WUHU216HW,2013-03-15 14:34:00,
2013-03-15 10:39:00,37.8,17.7,29.90,WSW,248,3.8,6.9,44,0.00,,,0.00,WUHU216HW,2013-03-15 14:39:00,
2013-03-15 10:44:00,38.2,18.0,29.90,West,270,2.7,4.7,44,0.00,,,0.00,WUHU216HW,2013-03-15 14:44:00,
2013-03-15 10:49:00,38.0,17.9,29.90,NNW,338,1.1,5.4,44,0.00,,,0.00,WUHU216HW,2013-03-15 14:49:00,
2013-03-15 10:54:00,38.0,17.9,29.90,WNW,293,5.4,5.4,44,0.00,,,0.00,WUHU216HW,2013-03-15 14:54:00,
2013-03-15 10:59:00,38.3,18.2,29.90,West,270,2.9,5.4,44,0.00,,,0.00,WUHU216HW,2013-03-15 14:59:00,
2013-03-15 11:04:00,38.7,18.6,29.90,West,270,1.8,4.9,44,0.00,,,0.00,WUHU216HW,2013-03-15 15:04:00,
2013-03-15 11:09:00,39.1,17.8,29.89,West,270,3.1,4.9,42,0.00,,,0.00,WUHU216HW,2013-03-15 15:09:00,
2013-03-15 11:14:00,39.2,18.5,29.89,WSW,248,1.1,4.9,43,0.00,,,0.00,WUHU216HW,2013-03-15 15:14:00,
2013-03-15 11:19:00,40.0,19.2,29.89,West,270,4.3,4.9,43,0.00,,,0.00,WUHU216HW,2013-03-15 15:19:00,
2013-03-15 11:24:00,40.1,18.8,29.88,SSW,203,3.4,5.6,42,0.00,,,0.00,WUHU216HW,2013-03-15 15:24:00,
2013-03-15 11:29:00,40.5,19.1,29.88,WSW,248,3.8,5.6,42,0.00,,,0.00,WUHU216HW,2013-03-15 15:29:00,
2013-03-15 11:34:00,40.7,19.3,29.88,SSW,203,2.5,6.0,42,0.00,,,0.00,WUHU216HW,2013-03-15 15:34:00,
2013-03-15 11:39:00,40.7,19.3,29.87,SSW,203,3.1,6.3,42,0.00,,,0.00,WUHU216HW,2013-03-15 15:39:00,
2013-03-15 11:44:00,41.0,20.1,29.87,South,180,3.4,6.3,43,0.00,,,0.00,WUHU216HW,2013-03-15 15:44:00,
2013-03-15 11:49:00,41.0,19.6,29.87,SSW,203,2.5,5.6,42,0.00,,,0.00,WUHU216HW,2013-03-15 15:49:00,
2013-03-15 11:54:00,41.8,20.8,29.86,South,180,1.8,5.8,43,0.00,,,0.00,WUHU216HW,2013-03-15 15:54:00,
2013-03-15 11:59:00,42.5,21.4,29.86,NW,315,0.9,5.8,43,0.00,,,0.00,WUHU216HW,2013-03-15 15:59:00,
2013-03-15 12:04:00,43.6,22.4,29.86,WNW,293,1.3,5.1,43,0.00,,,0.00,WUHU216HW,2013-03-15 16:04:00,
2013-03-15 12:09:00,43.9,22.2,29.85,SE,135,2.9,5.6,42,0.00,,,0.00,WUHU216HW,2013-03-15 16:09:00,
2013-03-15 12:14:00,43.9,21.7,29.85,SW,225,2.9,6.7,41,0.00,,,0.00,WUHU216HW,2013-03-15 16:14:00,
2013-03-15 12:19:00,43.9,21.2,29.85,South,180,3.4,7.2,40,0.00,,,0.00,WUHU216HW,2013-03-15 16:19:00,
2013-03-15 12:24:00,43.9,20.4,29.84,WNW,293,2.5,7.2,39,0.00,,,0.00,WUHU216HW,2013-03-15 16:24:00,
2013-03-15 12:29:00,43.4,20.6,29.84,SSW,203,1.8,7.6,40,0.00,,,0.00,WUHU216HW,2013-03-15 16:29:00,
2013-03-15 12:34:00,42.8,20.7,29.84,WSW,248,2.2,7.6,41,0.00,,,0.00,WUHU216HW,2013-03-15 16:34:00,
2013-03-15 12:39:00,42.8,20.7,29.83,South,180,2.0,5.4,41,0.00,,,0.00,WUHU216HW,2013-03-15 16:39:00,
2013-03-15 12:44:00,43.0,21.4,29.84,SW,225,3.6,7.6,42,0.00,,,0.00,WUHU216HW,2013-03-15 16:44:00,
2013-03-15 12:49:00,43.0,21.4,29.83,WNW,293,1.8,7.6,42,0.00,,,0.00,WUHU216HW,2013-03-15 16:49:00,
2013-03-15 12:54:00,43.2,21.6,29.83,SSW,203,6.7,6.7,42,0.00,,,0.00,WUHU216HW,2013-03-15 16:54:00,
2013-03-15 12:59:00,43.2,21.6,29.82,SSW,203,6.9,7.6,42,0.00,,,0.00,WUHU216HW,2013-03-15 16:59:00,
2013-03-15 13:04:00,43.6,21.9,29.82,WSW,248,3.6,7.6,42,0.00,,,0.00,WUHU216HW,2013-03-15 17:04:00,
2013-03-15 13:09:00,43.4,21.7,29.82,SW,225,2.2,8.5,42,0.00,,,0.00,WUHU216HW,2013-03-15 17:09:00,
2013-03-15 13:14:00,43.2,22.2,29.82,NW,315,5.4,8.5,43,0.00,,,0.00,WUHU216HW,2013-03-15 17:14:00,
2013-03-15 13:19:00,43.2,22.2,29.81,West,270,1.3,6.9,43,0.00,,,0.00,WUHU216HW,2013-03-15 17:19:00,
2013-03-15 13:24:00,43.0,22.0,29.81,NNW,338,4.0,6.3,43,0.00,,,0.00,WUHU216HW,2013-03-15 17:24:00,
2013-03-15 13:29:00,42.8,22.3,29.81,South,180,2.7,6.3,44,0.00,,,0.00,WUHU216HW,2013-03-15 17:29:00,
2013-03-15 13:34:00,42.8,22.9,29.80,South,180,6.0,7.2,45,0.00,,,0.00,WUHU216HW,2013-03-15 17:34:00,
2013-03-15 13:39:00,42.7,22.7,29.80,WSW,248,7.6,7.6,45,0.00,,,0.00,WUHU216HW,2013-03-15 17:39:00,
2013-03-15 13:44:00,42.5,23.0,29.80,SW,225,0.9,7.6,46,0.00,,,0.00,WUHU216HW,2013-03-15 17:44:00,
2013-03-15 13:49:00,42.7,23.2,29.79,South,180,2.0,7.6,46,0.00,,,0.00,WUHU216HW,2013-03-15 17:49:00,
2013-03-15 13:54:00,42.8,23.4,29.79,WSW,248,5.1,8.1,46,0.00,,,0.00,WUHU216HW,2013-03-15 17:54:00,
2013-03-15 13:59:00,42.7,23.2,29.79,SSW,203,1.8,9.2,46,0.00,,,0.00,WUHU216HW,2013-03-15 17:59:00,
2013-03-15 14:04:00,42.7,23.2,29.78,West,270,1.1,9.2,46,0.00,,,0.00,WUHU216HW,2013-03-15 18:04:00,
2013-03-15 14:09:00,42.5,23.0,29.78,West,270,4.5,7.6,46,0.00,,,0.00,WUHU216HW,2013-03-15 18:09:00,
2013-03-15 14:14:00,42.3,22.9,29.77,SW,225,5.4,7.6,46,0.00,,,0.00,WUHU216HW,2013-03-15 18:14:00,
2013-03-15 14:19:00,42.3,22.9,29.77,SW,225,2.0,6.7,46,0.00,,,0.00,WUHU216HW,2013-03-15 18:19:00,
2013-03-15 14:24:00,42.3,23.4,29.77,NW,315,2.5,6.3,47,0.00,,,0.00,WUHU216HW,2013-03-15 18:24:00,
2013-03-15 14:29:00,42.5,23.0,29.77,SSW,203,2.0,5.8,46,0.00,,,0.00,WUHU216HW,2013-03-15 18:29:00,
2013-03-15 14:34:00,42.5,23.6,29.77,SSW,203,1.6,5.1,47,0.00,,,0.00,WUHU216HW,2013-03-15 18:34:00,
2013-03-15 14:39:00,42.7,23.8,29.77,WSW,248,2.5,7.2,47,0.00,,,0.00,WUHU216HW,2013-03-15 18:39:00,
2013-03-15 14:44:00,42.5,24.1,29.76,SW,225,2.7,7.2,48,0.00,,,0.00,WUHU216HW,2013-03-15 18:44:00,
2013-03-15 14:49:00,42.5,24.1,29.76,SSW,203,1.3,6.7,48,0.00,,,0.00,WUHU216HW,2013-03-15 18:49:00,
2013-03-15 14:54:00,42.5,24.1,29.76,SW,225,2.7,6.9,48,0.00,,,0.00,WUHU216HW,2013-03-15 18:54:00,
2013-03-15 14:59:00,42.5,24.1,29.76,SW,225,1.1,7.6,48,0.00,,,0.00,WUHU216HW,2013-03-15 18:59:00,
2013-03-15 15:04:00,42.7,24.3,29.75,WSW,248,6.0,8.5,48,0.00,,,0.00,WUHU216HW,2013-03-15 19:04:00,
2013-03-15 15:09:00,42.7,24.3,29.75,South,180,4.7,8.5,48,0.00,,,0.00,WUHU216HW,2013-03-15 19:09:00,
2013-03-15 15:14:00,42.8,23.9,29.75,WNW,293,2.2,7.2,47,0.00,,,0.00,WUHU216HW,2013-03-15 19:14:00,
2013-03-15 15:19:00,42.8,23.9,29.75,West,270,6.7,10.5,47,0.00,,,0.00,WUHU216HW,2013-03-15 19:19:00,
2013-03-15 15:24:00,43.0,24.1,29.75,SW,225,4.0,10.5,47,0.00,,,0.00,WUHU216HW,2013-03-15 19:24:00,
2013-03-15 15:29:00,43.4,24.9,29.74,West,270,5.4,10.5,48,0.00,,,0.00,WUHU216HW,2013-03-15 19:29:00,
2013-03-15 15:34:00,43.7,25.3,29.74,SW,225,10.5,10.5,48,0.00,,,0.00,WUHU216HW,2013-03-15 19:34:00,
2013-03-15 15:39:00,44.3,25.2,29.73,West,270,7.4,10.5,47,0.00,,,0.00,WUHU216HW,2013-03-15 19:39:00,
2013-03-15 15:44:00,44.6,25.6,29.73,SW,225,5.4,10.5,47,0.00,,,0.00,WUHU216HW,2013-03-15 19:44:00,
2013-03-15 15:49:00,45.0,25.9,29.73,WSW,248,3.4,8.9,47,0.00,,,0.00,WUHU216HW,2013-03-15 19:49:00,
2013-03-15 15:54:00,45.2,26.6,29.73,WSW,248,4.7,8.9,48,0.00,,,0.00,WUHU216HW,2013-03-15 19:54:00,
2013-03-15 15:59:00,45.2,26.0,29.72,SSW,203,3.6,8.9,47,0.00,,,0.00,WUHU216HW,2013-03-15 19:59:00,
2013-03-15 16:04:00,45.0,25.9,29.72,SW,225,3.4,8.3,47,0.00,,,0.00,WUHU216HW,2013-03-15 20:04:00,
2013-03-15 16:09:00,44.8,26.3,29.72,WSW,248,5.8,8.3,48,0.00,,,0.00,WUHU216HW,2013-03-15 20:09:00,
2013-03-15 16:14:00,44.5,25.9,29.72,WSW,248,2.7,7.6,48,0.00,,,0.00,WUHU216HW,2013-03-15 20:14:00,
2013-03-15 16:19:00,44.3,25.7,29.71,WNW,293,2.5,9.2,48,0.00,,,0.00,WUHU216HW,2013-03-15 20:19:00,
2013-03-15 16:24:00,44.5,26.5,29.71,SSW,203,2.5,9.2,49,0.00,,,0.00,WUHU216HW,2013-03-15 20:24:00,
2013-03-15 16:29:00,44.6,27.2,29.71,West,270,3.4,7.2,50,0.00,,,0.00,WUHU216HW,2013-03-15 20:29:00,
2013-03-15 16:34:00,44.8,27.4,29.71,SW,225,4.0,7.2,50,0.00,,,0.00,WUHU216HW,2013-03-15 20:34:00,
2013-03-15 16:39:00,44.8,27.4,29.71,South,180,2.7,7.4,50,0.00,,,0.00,WUHU216HW,2013-03-15 20:39:00,
2013-03-15 16:44:00,45.0,27.0,29.70,WSW,248,9.2,10.3,49,0.00,,,0.00,WUHU216HW,2013-03-15 20:44:00,
2013-03-15 16:49:00,45.0,27.0,29.70,West,270,4.7,10.3,49,0.00,,,0.00,WUHU216HW,2013-03-15 20:49:00,
2013-03-15 16:54:00,45.0,26.5,29.70,SW,225,3.8,11.4,48,0.00,,,0.00,WUHU216HW,2013-03-15 20:54:00,
2013-03-15 16:59:00,44.8,26.3,29.70,WSW,248,6.0,11.4,48,0.00,,,0.00,WUHU216HW,2013-03-15 20:59:00,
2013-03-15 17:04:00,45.0,27.0,29.70,West,270,6.9,7.6,49,0.00,,,0.00,WUHU216HW,2013-03-15 21:04:00,
2013-03-15 17:09:00,44.8,27.4,29.69,WSW,248,3.4,6.9,50,0.00,,,0.00,WUHU216HW,2013-03-15 21:09:00,
2013-03-15 17:14:00,44.8,27.4,29.69,SSW,203,1.8,6.9,50,0.00,,,0.00,WUHU216HW,2013-03-15 21:14:00,
2013-03-15 17:19:00,44.8,27.4,29.69,SW,225,1.3,4.9,50,0.00,,,0.00,WUHU216HW,2013-03-15 21:19:00,
2013-03-15 17:24:00,44.8,27.4,29.69,West,270,0.9,5.1,50,0.00,,,0.00,WUHU216HW,2013-03-15 21:24:00,
2013-03-15 17:29:00,44.8,27.4,29.69,NW,315,3.6,7.4,50,0.00,,,0.00,WUHU216HW,2013-03-15 21:29:00,
2013-03-15 17:34:00,44.6,27.2,29.69,SW,225,2.9,9.6,50,0.00,,,0.00,WUHU216HW,2013-03-15 21:34:00,
2013-03-15 17:39:00,44.6,27.2,29.69,NW,315,1.8,9.6,50,0.00,,,0.00,WUHU216HW,2013-03-15 21:39:00,
2013-03-15 17:44:00,44.6,27.2,29.69,SSW,203,1.1,4.9,50,0.00,,,0.00,WUHU216HW,2013-03-15 21:44:00,
2013-03-15 17:49:00,44.6,27.6,29.69,South,180,1.8,6.7,51,0.00,,,0.00,WUHU216HW,2013-03-15 21:49:00,
2013-03-15 17:54:00,44.6,28.1,29.69,WSW,248,3.1,6.3,52,0.00,,,0.00,WUHU216HW,2013-03-15 21:54:00,
2013-03-15 17:59:00,44.6,27.6,29.69,SW,225,2.7,4.9,51,0.00,,,0.00,WUHU216HW,2013-03-15 21:59:00,
2013-03-15 18:04:00,44.6,28.1,29.69,WSW,248,3.4,4.7,52,0.00,,,0.00,WUHU216HW,2013-03-15 22:04:00,
2013-03-15 18:09:00,44.8,27.8,29.69,SW,225,1.8,4.3,51,0.00,,,0.00,WUHU216HW,2013-03-15 22:09:00,
2013-03-15 18:14:00,44.8,27.8,29.68,West,270,0.4,5.6,51,0.00,,,0.00,WUHU216HW,2013-03-15 22:14:00,
2013-03-15 18:19:00,44.8,28.3,29.68,West,270,6.3,6.3,52,0.00,,,0.00,WUHU216HW,2013-03-15 22:19:00,
2013-03-15 18:24:00,44.8,27.8,29.68,SW,225,1.1,6.3,51,0.00,,,0.00,WUHU216HW,2013-03-15 22:24:00,
2013-03-15 18:29:00,45.0,28.0,29.68,SSW,203,2.2,6.3,51,0.00,,,0.00,WUHU216HW,2013-03-15 22:29:00,
2013-03-15 18:34:00,45.0,28.0,29.68,WSW,248,4.5,5.8,51,0.00,,,0.00,WUHU216HW,2013-03-15 22:34:00,
2013-03-15 18:39:00,45.0,28.0,29.68,WSW,248,2.5,5.4,51,0.00,,,0.00,WUHU216HW,2013-03-15 22:39:00,
2013-03-15 18:44:00,45.2,28.1,29.68,WNW,293,1.1,5.1,51,0.00,,,0.00,WUHU216HW,2013-03-15 22:44:00,
2013-03-15 18:49:00,45.2,27.6,29.68,NW,315,2.5,5.8,50,0.00,,,0.00,WUHU216HW,2013-03-15 22:49:00,
2013-03-15 18:54:00,45.4,28.3,29.68,West,270,1.3,5.8,51,0.00,,,0.00,WUHU216HW,2013-03-15 22:54:00,
2013-03-15 18:59:00,45.4,28.3,29.68,SW,225,1.1,4.7,51,0.00,,,0.00,WUHU216HW,2013-03-15 22:59:00,
2013-03-15 19:04:00,45.4,28.3,29.69,NE,45,0.2,4.3,51,0.00,,,0.00,WUHU216HW,2013-03-15 23:04:00,
2013-03-15 19:09:00,45.4,28.3,29.69,NW,315,1.8,5.4,51,0.00,,,0.00,WUHU216HW,2013-03-15 23:09:00,
2013-03-15 19:14:00,45.5,28.4,29.69,WSW,248,2.2,5.4,51,0.00,,,0.00,WUHU216HW,2013-03-15 23:14:00,
2013-03-15 19:19:00,45.7,28.2,29.69,NW,315,1.3,6.3,50,0.00,,,0.00,WUHU216HW,2013-03-15 23:19:00,
2013-03-15 19:24:00,45.7,28.2,29.69,SW,225,0.7,6.3,50,0.00,,,0.00,WUHU216HW,2013-03-15 23:24:00,
2013-03-15 19:29:00,45.7,28.6,29.69,West,270,1.8,2.7,51,0.00,,,0.00,WUHU216HW,2013-03-15 23:29:00,
2013-03-15 19:34:00,45.5,28.4,29.70,SW,225,1.8,3.6,51,0.00,,,0.00,WUHU216HW,2013-03-15 23:34:00,
2013-03-15 19:39:00,45.5,28.9,29.70,WSW,248,1.1,4.0,52,0.00,,,0.00,WUHU216HW,2013-03-15 23:39:00,
2013-03-15 19:44:00,45.5,28.9,29.70,WSW,248,2.0,4.0,52,0.00,,,0.00,WUHU216HW,2013-03-15 23:44:00,
2013-03-15 19:49:00,45.5,28.9,29.70,West,270,0.0,3.1,52,0.00,,,0.00,WUHU216HW,2013-03-15 23:49:00,
2013-03-15 19:54:00,45.5,28.9,29.70,WSW,248,0.9,2.5,52,0.00,,,0.00,WUHU216HW,2013-03-15 23:54:00,
2013-03-15 19:59:00,45.4,28.7,29.70,SW,225,0.0,2.5,52,0.00,,,0.00,WUHU216HW,2013-03-15 23:59:00,
2013-03-15 20:04:00,45.4,28.7,29.70,West,270,0.0,2.5,52,0.00,,,0.00,WUHU216HW,2013-03-16 00:04:00,
2013-03-15 20:09:00,45.4,28.7,29.71,NW,315,0.7,2.5,52,0.00,,,0.00,WUHU216HW,2013-03-16 00:09:00,
2013-03-15 20:14:00,45.5,28.9,29.71,SW,225,2.2,4.5,52,0.00,,,0.00,WUHU216HW,2013-03-16 00:14:00,
2013-03-15 20:19:00,45.7,28.6,29.71,SW,225,0.4,4.5,51,0.00,,,0.00,WUHU216HW,2013-03-16 00:19:00,
2013-03-15 20:24:00,45.7,28.6,29.71,West,270,2.0,3.4,51,0.00,,,0.00,WUHU216HW,2013-03-16 00:24:00,
2013-03-15 20:29:00,45.7,28.6,29.71,SW,225,2.2,3.4,51,0.00,,,0.00,WUHU216HW,2013-03-16 00:29:00,
2013-03-15 20:34:00,45.7,28.6,29.71,NNW,338,1.1,2.5,51,0.00,,,0.00,WUHU216HW,2013-03-16 00:34:00,
2013-03-15 20:39:00,45.7,28.6,29.71,SSW,203,1.8,2.2,51,0.00,,,0.00,WUHU216HW,2013-03-16 00:39:00,
2013-03-15 20:44:00,45.7,28.6,29.71,WNW,293,2.2,3.1,51,0.00,,,0.00,WUHU216HW,2013-03-16 00:44:00,
2013-03-15 20:49:00,45.9,28.8,29.71,NW,315,3.4,3.4,51,0.00,,,0.00,WUHU216HW,2013-03-16 00:49:00,
2013-03-15 20:54:00,46.1,28.9,29.71,North,0,2.5,4.3,51,0.00,,,0.00,WUHU216HW,2013-03-16 00:54:00,
2013-03-15 20:59:00,46.1,28.9,29.71,WNW,293,3.6,4.3,51,0.00,,,0.00,WUHU216HW,2013-03-16 00:59:00,
2013-03-15 21:04:00,46.1,29.3,29.71,WNW,293,4.7,4.7,52,0.00,,,0.00,WUHU216HW,2013-03-16 01:04:00,
2013-03-15 21:09:00,46.3,29.5,29.71,West,270,4.0,4.7,52,0.00,,,0.00,WUHU216HW,2013-03-16 01:09:00,
2013-03-15 21:14:00,46.3,30.0,29.71,SW,225,0.9,5.4,53,0.00,,,0.00,WUHU216HW,2013-03-16 01:14:00,
2013-03-15 21:19:00,46.3,30.4,29.71,WSW,248,1.8,5.4,54,0.00,,,0.00,WUHU216HW,2013-03-16 01:19:00,
2013-03-15 21:24:00,46.3,30.4,29.71,SW,225,6.3,6.3,54,0.00,,,0.00,WUHU216HW,2013-03-16 01:24:00,
2013-03-15 21:29:00,46.4,31.1,29.71,NW,315,2.9,6.3,55,0.00,,,0.00,WUHU216HW,2013-03-16 01:29:00,
2013-03-15 21:34:00,46.4,31.1,29.72,NNW,338,0.4,6.3,55,0.00,,,0.00,WUHU216HW,2013-03-16 01:34:00,
2013-03-15 21:39:00,46.4,31.1,29.72,NW,315,3.4,5.4,55,0.00,,,0.00,WUHU216HW,2013-03-16 01:39:00,
2013-03-15 21:44:00,46.4,31.1,29.72,NNE,23,1.1,5.1,55,0.00,,,0.00,WUHU216HW,2013-03-16 01:44:00,
2013-03-15 21:49:00,46.4,30.6,29.71,NW,315,0.9,5.4,54,0.00,,,0.00,WUHU216HW,2013-03-16 01:49:00,
2013-03-15 21:54:00,46.3,30.9,29.72,North,0,3.4,5.4,55,0.00,,,0.00,WUHU216HW,2013-03-16 01:54:00,
2013-03-15 21:59:00,46.3,30.9,29.72,NNW,338,0.2,3.6,55,0.00,,,0.00,WUHU216HW,2013-03-16 01:59:00,
2013-03-15 22:04:00,46.3,30.9,29.72,NNW,338,2.0,4.0,55,0.00,,,0.00,WUHU216HW,2013-03-16 02:04:00,
2013-03-15 22:09:00,46.1,30.7,29.72,NNW,338,1.3,4.0,55,0.00,,,0.00,WUHU216HW,2013-03-16 02:09:00,
2013-03-15 22:14:00,45.9,30.2,29.72,NNW,338,0.4,3.4,54,0.00,,,0.00,WUHU216HW,2013-03-16 02:14:00,
2013-03-15 22:19:00,45.7,30.4,29.72,NNE,23,3.4,5.8,55,0.00,,,0.00,WUHU216HW,2013-03-16 02:19:00,
2013-03-15 22:24:00,45.7,30.4,29.72,NW,315,1.3,5.8,55,0.00,,,0.00,WUHU216HW,2013-03-16 02:24:00,
2013-03-15 22:29:00,45.4,30.1,29.73,ESE,113,1.6,4.5,55,0.00,,,0.00,WUHU216HW,2013-03-16 02:29:00,
2013-03-15 22:34:00,45.2,29.9,29.73,NE,45,1.8,4.5,55,0.00,,,0.00,WUHU216HW,2013-03-16 02:34:00,
2013-03-15 22:39:00,44.8,30.1,29.73,NW,315,1.1,4.3,56,0.00,,,0.00,WUHU216HW,2013-03-16 02:39:00,
2013-03-15 22:44:00,44.6,29.4,29.73,North,0,0.7,4.0,55,0.00,,,0.00,WUHU216HW,2013-03-16 02:44:00,
2013-03-15 22:49:00,44.5,29.7,29.73,North,0,1.3,4.0,56,0.00,,,0.00,WUHU216HW,2013-03-16 02:49:00,
2013-03-15 22:54:00,44.3,29.5,29.73,West,270,1.6,3.6,56,0.00,,,0.00,WUHU216HW,2013-03-16 02:54:00,
2013-03-15 22:59:00,44.1,29.3,29.73,NNW,338,1.3,4.0,56,0.00,,,0.00,WUHU216HW,2013-03-16 02:59:00,
2013-03-15 23:04:00,43.9,29.6,29.74,North,0,0.7,4.0,57,0.00,,,0.00,WUHU216HW,2013-03-16 03:04:00,
2013-03-15 23:09:00,43.9,30.1,29.73,NW,315,3.4,3.4,58,0.00,,,0.00,WUHU216HW,2013-03-16 03:09:00,
2013-03-15 23:14:00,43.7,29.9,29.73,NW,315,2.2,5.1,58,0.00,,,0.00,WUHU216HW,2013-03-16 03:14:00,
2013-03-15 23:19:00,43.6,29.7,29.73,NNE,23,0.7,5.4,58,0.00,,,0.00,WUHU216HW,2013-03-16 03:19:00,
2013-03-15 23:24:00,43.6,29.7,29.73,North,0,0.9,5.4,58,0.00,,,0.00,WUHU216HW,2013-03-16 03:24:00,
2013-03-15 23:29:00,43.6,29.7,29.73,NW,315,2.5,8.7,58,0.00,,,0.00,WUHU216HW,2013-03-16 03:29:00,
2013-03-15 23:34:00,43.4,29.5,29.73,NW,315,1.8,8.7,58,0.00,,,0.00,WUHU216HW,2013-03-16 03:34:00,
2013-03-15 23:39:00,43.2,29.8,29.74,SSE,158,3.1,4.0,59,0.00,,,0.00,WUHU216HW,2013-03-16 03:39:00,
2013-03-15 23:44:00,43.2,29.8,29.74,North,0,1.8,4.0,59,0.00,,,0.00,WUHU216HW,2013-03-16 03:44:00,
2013-03-15 23:49:00,43.0,29.6,29.74,WSW,248,1.1,3.8,59,0.00,,,0.00,WUHU216HW,2013-03-16 03:49:00,
2013-03-15 23:54:00,42.8,29.4,29.74,NW,315,2.2,2.5,59,0.00,,,0.00,WUHU216HW,2013-03-16 03:54:00,
2013-03-15 23:59:00,42.8,29.4,29.74,North,0,1.1,4.0,59,0.00,,,0.00,WUHU216HW,2013-03-16 03:59:00,